FLOCK 4A-10 (44097 NORAD) Tracking and Keplerian Element Data

This shows tracking and keplerian element data for the satellite.

Feedback or suggestion? Click here.




ElementValue
Catalog44097
NameFLOCK 4A-10
Epoch Orbit435
Epoch Day119.93738132
Epoch Year2019
RAAN180.2697
Inclination97.4611
Eccentricity0.0011544
Argument of Perigee185.0835
Mean Anonmoly175.0285
Mean Motion15.22022366
Decay Rate6.58E-06
L11 44097U 19018V 19119.93738132 .00000658 00000-0 31874-4 0 9996
L22 44097 97.4611 180.2697 0011544 185.0835 175.0285 15.22022366 4351

Live tracking and technical data element details for FLOCK 4A-10 (NORAD 44097). FLOCK 4A-10 can be tracked NOW for your location showing map with azimuth and elevation plus other details from your city location.

Track the satellite on the map from your city or location and see movement details for azimuth, elevation, latitude, longitude, range, height, and movement on the map or in text.







IsCatalogInMostPopularTable: catalog: 44097, numindb: 42
Update: records affected: 1



GetName: 44097 FLOCK 4A-10

Hit Count: updated at: Mon, 22 Jul 2019 17:10:16 GMT